Content
SEND FEEDBACK

Daily
Averages
Monthly
Summary
United States of America

SAC CITY, IOWA


Home > North America > United States > Iowa
Elevation: 1270 feet     Latitude: 42 25N     Longitude: 095 00W

WEATHER
 
SELECT A DAY
Number of Records: 411,970;   Date Range: 4/23/95 - 10/21/14
 
SHARE

PRINT THIS DATA

[ ← Previous Day ]
WEATHER ALMANAC - JANUARY 31, 2013
[ Next Day → ]
[ °C ]   °F
Weather ElementAverageHighLow
Dewpoint-8.6 °F-0.4 °F (12:35 am)-14.8 °F (10:15 pm)
Humidity67.3 %78 % (12:35 am)56 % (1:55 pm)
Barometer30.08 in30.30 in (10:55 pm)29.83 in (1:15 am)
Wind Speed22.9 mph31.1 mph (1:15 pm)
Wind Gust38 mph (1:55 pm)
Weather ElementAverage
Visibility9.2 mi
Wind DirectionWNW (307.1 °)

Weather ElementTotal
Precipitation---
Heating Degree Days65.4 (Base 65)
Averaged from 68 records on January 31, 2013
WEATHER CONDITIONS BREAKOUT
WIND DIRECTION BREAKOUT
WEATHER BY HOUR - JANUARY 31, 2013
[ °C ]   °F
Local TimeTemperatureDewpointHumidityBarometerVisibilityWind DirectionWind SpeedGust SpeedPrecipitationEventsConditions
12:35 AM5.0 °F-0.4 °F78 %29.84 in10.0 miNW (310°)21.9 mph27.6 mphMostly Cloudy
12:55 AM5.0 °F-0.4 °F78 %29.84 in10.0 miWNW (300°)19.6 mphClear
1:15 AM5.0 °F-2.2 °F72 %29.83 in10.0 miWNW (300°)18.4 mphClear
1:35 AM3.2 °F-2.2 °F78 %29.84 in10.0 miWNW (290°)21.9 mphClear
1:55 AM3.2 °F-2.2 °F78 %29.84 in10.0 miWNW (290°)19.6 mphClear
2:15 AM3.2 °F-2.2 °F78 %29.85 in10.0 miWNW (300°)21.9 mphClear
2:35 AM3.2 °F-2.2 °F78 %29.86 in10.0 miWNW (300°)21.9 mph28.8 mphClear
2:55 AM1.4 °F-4.0 °F78 %29.86 in10.0 miWNW (300°)21.9 mph28.8 mphClear
3:15 AM1.4 °F-4.0 °F78 %29.86 in10.0 miWNW (300°)23.0 mphClear
3:35 AM1.4 °F-5.8 °F72 %29.86 in10.0 miWNW (300°)21.9 mphClear
3:55 AM1.4 °F-5.8 °F72 %29.86 in10.0 miWNW (300°)19.6 mph29.9 mphClear
4:15 AM1.4 °F-5.8 °F72 %29.88 in10.0 miNW (310°)21.9 mph28.8 mphClear
4:35 AM1.4 °F-7.6 °F66 %29.89 in10.0 miWNW (300°)20.7 mph28.8 mphClear
4:55 AM1.4 °F-7.6 °F66 %29.90 in10.0 miNW (310°)20.7 mph29.9 mphMostly Cloudy
5:15 AM-0.4 °F-7.6 °F72 %29.90 in10.0 miNW (310°)24.2 mph32.2 mphOvercast
5:35 AM-0.4 °F-7.6 °F72 %29.91 in10.0 miNW (320°)21.9 mph32.2 mphOvercast
5:55 AM-0.4 °F-7.6 °F72 %29.91 in10.0 miNW (310°)23.0 mphOvercast
6:15 AM-0.4 °F-7.6 °F72 %29.93 in10.0 miNW (310°)20.7 mph27.6 mphOvercast
6:35 AM-0.4 °F-7.6 °F72 %29.94 in10.0 miNW (320°)20.7 mph29.9 mphOvercast
6:55 AM-0.4 °F-9.4 °F66 %29.95 in10.0 miNW (320°)20.7 mph29.9 mphOvercast
7:15 AM-0.4 °F-7.6 °F72 %29.96 in10.0 miNW (310°)25.3 mphOvercast
7:35 AM-0.4 °F-9.4 °F66 %29.96 in10.0 miNW (310°)20.7 mph28.8 mphOvercast
7:55 AM-2.2 °F-9.4 °F71 %29.98 in10.0 miNW (320°)27.6 mph34.5 mphMostly Cloudy
8:15 AM-2.2 °F-9.4 °F71 %29.99 in8.0 miNW (310°)25.3 mph32.2 mphScattered Clouds
8:35 AM-2.2 °F-9.4 °F71 %29.99 in7.0 miNW (310°)24.2 mphClear
8:55 AM-0.4 °F-7.6 °F72 %30.01 in8.0 miNW (320°)25.3 mph31.1 mphClear
9:15 AM-0.4 °F-9.4 °F66 %30.02 in8.0 miNW (320°)26.5 mph34.5 mphPartly Cloudy
9:35 AM-0.4 °F-9.4 °F66 %30.05 in7.0 miNW (320°)26.5 mph33.4 mphPartly Cloudy
9:55 AM-0.4 °F-7.6 °F72 %30.06 in4.0 miNW (320°)25.3 mph35.7 mphSnowLight Snow
10:15 AM-0.4 °F-9.4 °F66 %30.08 in5.0 miNW (320°)25.3 mph32.2 mphLight Drizzle
10:35 AM-0.4 °F-9.4 °F66 %30.08 in8.0 miNW (310°)27.6 mphPartly Cloudy
10:55 AM1.4 °F-7.6 °F66 %30.09 in10.0 miNW (310°)27.6 mph34.5 mphScattered Clouds
11:15 AM1.4 °F-9.4 °F61 %30.11 in10.0 miNW (320°)20.7 mph33.4 mphMostly Cloudy
11:35 AM1.4 °F-7.6 °F66 %30.11 in9.0 miWNW (300°)24.2 mph33.4 mphScattered Clouds
11:55 AM1.4 °F-9.4 °F61 %30.12 in8.0 miWNW (300°)24.2 mph32.2 mphScattered Clouds
12:15 PM1.4 °F-7.6 °F66 %30.13 in4.0 miWNW (300°)28.8 mph36.8 mphLight Drizzle
12:35 PM1.4 °F-7.6 °F66 %30.13 in6.0 miNW (310°)25.3 mph33.4 mphHaze
12:55 PM1.4 °F-9.4 °F61 %30.14 in8.0 miWNW (300°)26.5 mph34.5 mphScattered Clouds
1:15 PM1.4 °F-9.4 °F61 %30.14 in5.0 miNW (310°)31.1 mphLight Drizzle
1:35 PM1.4 °F-9.4 °F61 %30.14 in7.0 miNW (310°)29.9 mph36.8 mphScattered Clouds
1:55 PM3.2 °F-9.4 °F56 %30.15 in7.0 miNW (310°)28.8 mph38.0 mphScattered Clouds
2:15 PM3.2 °F-7.6 °F61 %30.15 in7.0 miNW (310°)27.6 mph35.7 mphMostly Cloudy
2:35 PM3.2 °F-7.6 °F61 %30.15 in10.0 miNW (310°)25.3 mph35.7 mphScattered Clouds
2:55 PM3.2 °F-7.6 °F61 %30.16 in10.0 miNW (310°)27.6 mph34.5 mphMostly Cloudy
3:15 PM3.2 °F-9.4 °F56 %30.18 in10.0 miNW (320°)28.8 mphMostly Cloudy
3:35 PM3.2 °F-9.4 °F56 %30.18 in10.0 miNW (310°)25.3 mph32.2 mphScattered Clouds
3:55 PM3.2 °F-9.4 °F56 %30.19 in10.0 miNW (310°)31.1 mphMostly Cloudy
4:15 PM3.2 °F-9.4 °F56 %30.19 in10.0 miNW (310°)21.9 mph29.9 mphScattered Clouds
4:35 PM1.4 °F-9.4 °F61 %30.20 in10.0 miNW (320°)21.9 mph32.2 mphScattered Clouds
4:55 PM1.4 °F-9.4 °F61 %30.21 in10.0 miNW (310°)21.9 mphScattered Clouds
5:15 PM-0.4 °F-9.4 °F66 %30.22 in10.0 miNW (310°)24.2 mphScattered Clouds
5:35 PM-0.4 °F-9.4 °F66 %30.22 in10.0 miNW (310°)23.0 mphMostly Cloudy
6:15 PM-0.4 °F-9.4 °F66 %30.23 in10.0 miNW (310°)19.6 mph25.3 mphMostly Cloudy
6:35 PM-2.2 °F-11.2 °F66 %30.24 in10.0 miWNW (300°)20.7 mph26.5 mphScattered Clouds
7:15 PM-2.2 °F-11.2 °F66 %30.26 in10.0 miWNW (290°)20.7 mphMostly Cloudy
7:35 PM-2.2 °F-11.2 °F66 %30.27 in10.0 miWNW (300°)21.9 mph28.8 mphPartly Cloudy
7:55 PM-4.0 °F-11.2 °F71 %30.27 in10.0 miWNW (300°)23.0 mph29.9 mphPartly Cloudy
8:15 PM-4.0 °F-13.0 °F65 %30.27 in10.0 miWNW (300°)20.7 mph27.6 mphPartly Cloudy
8:35 PM-4.0 °F-11.2 °F71 %30.28 in10.0 miWNW (300°)18.4 mph25.3 mphClear
8:55 PM-4.0 °F-13.0 °F65 %30.28 in9.0 miWNW (300°)18.4 mph24.2 mphClear
9:15 PM-4.0 °F-13.0 °F65 %30.29 in10.0 miWNW (290°)15.0 mph23.0 mphPartly Cloudy
9:35 PM-4.0 °F-13.0 °F65 %30.29 in10.0 miWNW (300°)16.1 mphClear
9:55 PM-5.8 °F-13.0 °F71 %30.29 in10.0 miNW (310°)17.3 mphClear
10:15 PM-5.8 °F-14.8 °F65 %30.29 in10.0 miNW (310°)19.6 mph26.5 mphClear
10:35 PM-5.8 °F-14.8 °F65 %30.29 in10.0 miWNW (300°)18.4 mphClear
10:55 PM-5.8 °F-14.8 °F65 %30.30 in10.0 miWNW (300°)19.6 mph26.5 mphClear
11:15 PM-5.8 °F-14.8 °F65 %30.30 in10.0 miWNW (300°)16.1 mph21.9 mphClear
11:35 PM-5.8 °F-14.8 °F65 %30.30 in10.0 miWNW (300°)19.6 mphClear
Hourly data recorded from KSLB, located miles away from Sac City, Iowa







STORIES FROM OUR PARTNERS